AirNav   ProFlight Series 2 Aviation Headset
 
 995 users online  

3A2 New Tazewell Municipal Airport
Tazewell, Tennessee, USA

GOING TO TAZEWELL?


FAA INFORMATION EFFECTIVE 18 JUNE 2020

Location

FAA Identifier: 3A2
Lat/Long: 36-24-32.0271N 083-33-25.8680W
36-24.533785N 083-33.431133W
36.4088964,-83.5571856
(estimated)
Elevation: 1178.8 ft. / 359.3 m (surveyed)
Variation: 05W (2005)
From city: 3 miles SE of TAZEWELL, TN
Time zone: UTC -4 (UTC -5 during Standard Time)
Zip code: 37879

Airport Operations

Airport use: Open to the public
Control tower: no
ARTCC: ATLANTA CENTER
FSS: NASHVILLE FLIGHT SERVICE STATION
NOTAMs facility: BNA (NOTAM-D service available)
Attendance: 0800-1600
AFT HR CTC AMGR.
Wind indicator: lighted
Segmented circle: yes
Lights: ACTVT PAPI RWY 07 & 25 - CTAF.
Beacon: white-green (lighted land airport)
Operates sunset to sunrise.

Airport Communications

CTAF: 122.9
WX AWOS-3 at 1A6 (15 nm NW): 119.425 (606-248-3095)
WX AWOS-3 at MOR (16 nm SE): 126.725 (423-587-5886)
  • APCH/DEP SVC PRVDD BY ATLANTA ARTCC ON FREQS 133.6/254.3 (HINCH MOUNTAIN RCAG).

Nearby radio navigation aids

VOR radial/distance  VOR name  Freq  Var
VXVr031/34.4VOLUNTEER VORTAC116.4003W

 
NDB name  Hdg/Dist  Freq  Var  ID
JEFFERSON352/18.334604WJXT .--- -..- -
ROGERSVILLE272/32.632907WRVN .-. ...- -.
DULANEY304/36.226307WDYQ -.. -.-- --.-

Airport Services

Fuel available: 100LL
Parking: tiedowns
Airframe service: NONE
Powerplant service: NONE
Bottled oxygen: NONE
Bulk oxygen: NONE

Runway Information

Runway 7/25

Dimensions: 5208 x 75 ft. / 1587 x 23 m
Surface: asphalt, in good condition
Weight bearing capacity: 
Single wheel: 16.0
Double wheel: 24.0
Runway edge lights: medium intensity
RUNWAY 7  RUNWAY 25
Latitude: 36-24.350000N36-24.717568N
Longitude: 083-33.910920W083-32.951345W
Elevation: 1176.6 ft.1172.1 ft.
Traffic pattern: leftleft
Runway heading: 070 magnetic, 065 true250 magnetic, 245 true
Markings: basic, in good conditionbasic, in good condition
Visual slope indicator: 2-light PAPI on left (3.50 degrees glide path)2-light PAPI on left
Runway end identifier lights: yesyes
Touchdown point: yes, no lightsyes, no lights
Obstructions: 90 ft. trees, 1735 ft. from runway, 358 ft. left of centerline, 17:1 slope to clear150 ft. tree, 4117 ft. from runway, 1741 ft. right of centerline, 27:1 slope to clear

Airport Ownership and Management from official FAA records

Ownership: Publicly-owned
Owner: CITY OF NEW TAZEWELL
PO BOX 609
NEW TAZEWELL, TN 37824
Phone (423) 626-5242
Manager: JERRY HOOPER
380 AIRPORT LANE
TAZEWELL, TN 37879
Phone 423-626-5242

Airport Operational Statistics

Aircraft based on the field: 28
Single engine airplanes: 24
Multi engine airplanes: 3
Helicopters: 1
    
Aircraft operations: avg 32/day *
91% local general aviation
9% transient general aviation
<1% military
* for 12-month period ending 30 June 2018

Additional Remarks

DEER ON OR INVOF ARPT.
FOR CD CTC ATLANTA ARTCC AT 770-210-7692.

Instrument Procedures

NOTE: All procedures below are presented as PDF files. If you need a reader for these files, you should download the free Adobe Reader.

NOT FOR NAVIGATION. Please procure official charts for flight.
FAA instrument procedures published for use from 18 June 2020 at 0901Z to 16 July 2020 at 0900Z.

 
IAPs - Instrument Approach Procedures
RNAV (GPS) RWY 07   download (204KB)
NOTE: Special Take-Off Minimums/Departure Procedures apply   download

Other nearby airports with instrument procedures:

1A6 - Middlesboro-Bell County Airport (15 nm NW)
KMOR - Moore-Murrell Airport (16 nm SE)
0VG - Lee County Airport (22 nm NE)
I35 - Tucker-Guthrie Memorial Airport (29 nm N)
KJAU - Colonel Tommy C Stiner Airfield (30 nm W)
 
Loc | Ops | Rwys | IFR | FBO | Links
Com | Nav | Svcs | Stats | Notes
Area around 3A2 (New Tazewell Municipal Airport)
 
Road maps at: MapQuest Bing Google
 
Aerial photo
WARNING: Photo may not be current or correct
Aerial photo of 3A2 (New Tazewell Municipal Airport)
Photo by Morgan Michel

Do you have a better or more recent aerial photo of New Tazewell Municipal Airport that you would like to share? If so, please send us your photo.

 
Sectional chart

 
Airport distance calculator
Flying to New Tazewell Municipal Airport? Find the distance to fly.

From to 3A2

Sunrise and sunset
Times for 03-Jul-2020
 Local
(UTC-4)
 Zulu
(UTC)
Morning civil twilight05:5209:52
Sunrise06:2210:22
Sunset20:5500:55
Evening civil twilight21:2501:25

Current date and time
Zulu (UTC)  03-Jul-2020 18:06:56
Local (UTC-4)  03-Jul-2020 14:06:56
 
METAR
K1A6 
15nm NW 
031755Z AUTO 00000KT 10SM CLR 30/16 A3002 RMK AO2 T03030162 10304 20173
KMOR 
16nm SE 
031755Z AUTO VRB05KT 10SM CLR 30/18 A3000 RMK A01
K0VG 
22nm NE 
031655Z AUTO 00000KT 10SM 30/17 A3005 RMK AO2
KI35 
29nm N 
031755Z AUTO 05003KT 10SM OVC060 29/16 A3003 RMK AO2 T02890164 10308 20171
KJAU 
30nm W 
031755Z AUTO 00000KT 10SM CLR 31/17 A3003 RMK A01
TAF
NOTAMs
Click for the latest NOTAMs
NOTAMs are issued by the DoD/FAA and will open in a separate window not controlled by AirNav.

 

 
 

FBO, Fuel Providers, and Aircraft Ground Support

  
 Business Name 
 
 Contact 
 
 Services / Description 
 
Fuel Prices
 
Comments
  
New Tazewell Municipal Airport 423-626-5242
[email]
Aviation fuel, Aircraft parking (ramp or tiedown), Hangar leasing / sales, Passenger terminal and lounge, Flight training, Aircraft maintenance, ...

More info about New Tazewell Municipal Airport
Shell
100LL
SS $4.60 
 Updated 23-Jun-2020
 
   1 read write
SS=Self service
Update Fuel Prices
 

Would you like to see your business listed on this page?

 If your business provides an interesting product or service to pilots, flight crews, aircraft, or users of the New Tazewell Municipal Airport, you should consider listing it here.  To start the listing process, click on the button below
 
Add a business
 

Other Pages about New Tazewell Municipal Airport

Update a link
 
Copyright © AirNav, LLC. All rights reserved. Privacy Policy  Contact